FW2000 Weather Reports


Display with metric or nautical units.
time (UTC)temp
F
wind
direction
speed
MPH
gust
MPH
rain 1hr
in
rain 24hr
in
rain mn
in
humidity
%
barometer
mb
20260510131004 61 90 1.0 4.0 0.00 0.00 0.00 69 1013.2
20260510130504 61 89 2.0 4.0 0.00 0.00 0.00 69 1013.2
20260510130007 61 104 2.0 4.0 0.00 0.00 0.00 70 1013.2
20260510125502 61 112 1.0 4.0 0.00 0.00 0.00 70 1013.2
20260510125004 62 111 1.0 4.0 0.00 0.00 0.00 69 1013.1
20260510124503 62 96 1.0 6.0 0.00 0.00 0.00 69 1013.2
20260510124001 62 98 1.0 6.0 0.00 0.00 0.00 69 1013.2
20260510123503 62 91 1.0 3.0 0.00 0.00 0.00 69 1013.2
20260510123102 62 88 1.0 4.0 0.00 0.00 0.00 69 1013.2
20260510123005 62 82 1.0 4.0 0.00 0.00 0.00 69 1013.2
20260510122603 62 113 1.0 7.0 0.00 0.00 0.00 69 1013.2
20260510122059 62 90 2.0 7.0 0.00 0.00 0.00 69 1013.1
20260510121600 63 83 2.0 4.0 0.00 0.00 0.00 69 1013.1
20260510121059 63 71 0.0 5.0 0.00 0.00 0.00 69 1013.2
20260510120558 63 73 2.0 7.0 0.00 0.00 0.00 69 1013.2
20260510120059 62 71 4.0 7.0 0.00 0.00 0.00 70 1013.1
20260510115558 62 78 1.0 7.0 0.00 0.00 0.00 71 1013.0
20260510115058 62 85 1.0 7.0 0.00 0.00 0.00 71 1013.0
20260510114557 62 108 1.0 4.0 0.00 0.00 0.00 71 1013.0
20260510114057 62 123 0.0 5.0 0.00 0.00 0.00 71 1013.0
20260510113555 63 84 1.0 5.0 0.00 0.00 0.00 71 1013.0
20260510113055 63 117 1.0 3.0 0.00 0.00 0.00 70 1013.1
20260510112555 63 106 1.0 5.0 0.00 0.00 0.00 70 1013.2
20260510112054 63 88 2.0 5.0 0.00 0.00 0.00 71 1013.1
20260510111604 63 113 1.0 6.0 0.00 0.00 0.00 71 1013.1
20260510111053 63 85 1.0 6.0 0.00 0.00 0.00 71 1013.2
20260510110555 63 104 1.0 5.0 0.00 0.00 0.00 71 1013.2
20260510110057 63 86 2.0 6.0 0.00 0.00 0.00 71 1013.2
20260510105552 63 108 3.0 6.0 0.00 0.00 0.00 71 1013.2
20260510105052 63 67 3.0 7.0 0.00 0.00 0.00 71 1013.2
20260510104609 63 88 3.0 7.0 0.00 0.00 0.00 72 1013.2
20260510104054 63 81 3.0 9.0 0.00 0.00 0.00 72 1013.2
20260510103553 63 84 4.0 9.0 0.00 0.00 0.00 72 1013.2
20260510103050 63 73 3.0 8.0 0.00 0.00 0.00 73 1013.2
20260510102549 63 86 4.0 8.0 0.00 0.00 0.00 73 1013.2
20260510102049 63 89 3.0 7.0 0.00 0.00 0.00 73 1013.2
20260510101548 63 96 3.0 6.0 0.00 0.00 0.00 73 1013.2
20260510101050 63 70 3.0 8.0 0.00 0.00 0.00 73 1013.2
20260510100546 63 84 3.0 8.0 0.00 0.00 0.00 73 1013.3
20260510100046 63 62 3.0 7.0 0.00 0.00 0.00 73 1013.3
20260510095549 64 74 3.0 7.0 0.00 0.00 0.00 73 1013.3
20260510095045 64 85 4.0 7.0 0.00 0.00 0.00 73 1013.4
20260510094545 64 83 3.0 5.0 0.00 0.00 0.00 73 1013.3
20260510094046 64 84 3.0 7.0 0.00 0.00 0.00 73 1013.3
20260510093545 64 101 4.0 7.0 0.00 0.00 0.00 73 1013.3
20260510093043 64 88 3.0 6.0 0.00 0.00 0.00 73 1013.3
20260510092545 64 78 3.0 6.0 0.00 0.00 0.00 72 1013.3
20260510092046 64 88 2.0 6.0 0.00 0.00 0.00 72 1013.3
20260510091543 64 91 2.0 6.0 0.00 0.00 0.00 72 1013.3
20260510091041 64 104 2.0 4.0 0.00 0.00 0.00 72 1013.4
20260510090541 64 109 3.0 4.0 0.00 0.00 0.00 72 1013.4
20260510090041 64 97 2.0 6.0 0.00 0.00 0.00 72 1013.4
20260510085542 64 92 2.0 6.0 0.00 0.00 0.00 72 1013.4
20260510085039 64 78 3.0 6.0 0.00 0.00 0.00 73 1013.5
20260510084539 64 89 3.0 6.0 0.00 0.00 0.00 73 1013.4
20260510084040 64 79 3.0 6.0 0.00 0.00 0.00 73 1013.4
20260510083539 64 69 3.0 6.0 0.00 0.00 0.00 73 1013.4
20260510083039 64 73 2.0 5.0 0.00 0.00 0.00 72 1013.5
20260510082538 64 88 3.0 6.0 0.00 0.00 0.00 72 1013.5
20260510082038 64 78 2.0 6.0 0.00 0.00 0.00 72 1013.6
20260510081542 64 84 2.0 6.0 0.00 0.00 0.00 72 1013.6
20260510081038 64 94 3.0 6.0 0.00 0.00 0.00 73 1013.5
20260510080537 64 76 3.0 5.0 0.00 0.00 0.00 72 1013.5
20260510080036 64 82 3.0 6.0 0.00 0.00 0.00 72 1013.5
20260510075535 64 86 2.0 4.0 0.00 0.00 0.00 72 1013.5
20260510075035 64 86 1.0 4.0 0.00 0.00 0.00 72 1013.6
20260510074536 64 87 1.0 4.0 0.00 0.00 0.00 72 1013.6
20260510074035 64 84 2.0 6.0 0.00 0.00 0.00 72 1013.6
20260510073535 64 93 2.0 6.0 0.00 0.00 0.00 72 1013.6
20260510073033 64 86 2.0 4.0 0.00 0.00 0.00 72 1013.6
20260510072533 64 91 2.0 4.0 0.00 0.00 0.00 71 1013.6
20260510072032 65 92 0.0 4.0 0.00 0.00 0.00 71 1013.7
20260510071532 65 98 1.0 4.0 0.00 0.00 0.00 70 1013.6
20260510071031 65 98 1.0 4.0 0.00 0.00 0.00 70 1013.6
20260510070532 65 99 1.0 4.0 0.00 0.00 0.00 70 1013.6
20260510070029 65 103 1.0 4.0 0.00 0.00 0.00 69 1013.6
20260510065532 65 114 1.0 3.0 0.00 0.00 0.00 69 1013.6
20260510065030 65 154 1.0 3.0 0.00 0.00 0.00 68 1013.7
20260510064531 65 156 0.0 3.0 0.00 0.00 0.00 68 1013.6
20260510064028 66 115 0.0 2.0 0.00 0.00 0.00 67 1013.6
20260510063529 66 113 0.0 3.0 0.00 0.00 0.00 67 1013.6
20260510063029 66 113 1.0 3.0 0.00 0.00 0.00 67 1013.4
20260510062528 66 113 1.0 3.0 0.00 0.00 0.00 66 1013.5
20260510062028 66 114 0.0 2.0 0.00 0.00 0.00 66 1013.5
20260510061535 66 115 0.0 2.0 0.00 0.00 0.00 66 1013.5
20260510061028 66 115 0.0 2.0 0.00 0.00 0.00 66 1013.5
20260510060528 66 113 0.0 2.0 0.00 0.00 0.00 65 1013.6
20260510060043 66 113 0.0 4.0 0.00 0.00 0.00 65 1013.6
20260510055527 66 98 1.0 4.0 0.00 0.00 0.00 65 1013.6
20260510055027 67 97 1.0 4.0 0.00 0.00 0.00 65 1013.6
20260510054527 67 138 0.0 4.0 0.00 0.00 0.00 65 1013.6
20260510054027 67 138 1.0 4.0 0.00 0.00 0.00 65 1013.7
20260510053526 67 143 0.0 3.0 0.00 0.00 0.00 66 1013.6
20260510053026 67 147 0.0 2.0 0.00 0.00 0.00 65 1013.6
20260510052526 67 147 0.0 3.0 0.00 0.00 0.00 65 1013.7
20260510052026 67 148 1.0 3.0 0.00 0.00 0.00 65 1013.6
20260510051527 67 171 0.0 1.0 0.00 0.00 0.00 65 1013.7
20260510051025 67 187 0.0 2.0 0.00 0.00 0.00 65 1013.6
20260510050525 67 211 0.0 2.0 0.00 0.00 0.00 65 1013.7
20260510050026 67 277 0.0 1.0 0.00 0.00 0.00 65 1013.6
20260510045529 68 277 0.0 0.0 0.00 0.00 0.00 65 1013.6
20260510045026 68 277 0.0 1.0 0.00 0.00 0.00 65 1013.6
20260510044524 68 277 0.0 0.0 0.00 0.00 0.00 64 1013.6
20260510044027 68 277 0.0 0.0 0.00 0.00 0.00 64 1013.5
20260510043525 68 277 0.0 1.0 0.00 0.00 0.00 64 1013.4
20260510043025 68 277 0.0 1.0 0.00 0.00 0.00 64 1013.4
20260510042524 68 277 0.0 1.0 0.00 0.00 0.00 64 1013.4
20260510042024 68 277 0.0 2.0 0.00 0.00 0.00 63 1013.5
20260510041529 68 277 0.0 3.0 0.00 0.00 0.00 63 1013.5
20260510041023 68 277 1.0 3.0 0.00 0.00 0.00 62 1013.5
20260510040523 68 277 1.0 2.0 0.00 0.00 0.00 62 1013.4
20260510040023 69 277 1.0 2.0 0.00 0.00 0.00 61 1013.4
20260510035522 69 282 1.0 2.0 0.00 0.00 0.00 61 1013.3
20260510035027 69 282 1.0 2.0 0.00 0.00 0.00 60 1013.3
20260510034523 69 282 1.0 2.0 0.00 0.00 0.00 60 1013.3
20260510034021 69 282 1.0 2.0 0.00 0.00 0.00 59 1013.2
20260510033522 69 282 1.0 2.0 0.00 0.00 0.00 58 1013.1
20260510033024 69 282 1.0 3.0 0.00 0.00 0.00 58 1013.1
20260510032527 70 282 1.0 3.0 0.00 0.00 0.00 58 1013.0
20260510032022 70 282 1.0 3.0 0.00 0.00 0.00 57 1013.0
20260510031524 70 282 1.0 3.0 0.00 0.00 0.00 57 1013.1
20260510031021 70 282 2.0 4.0 0.00 0.00 0.00 56 1013.1
20260510030521 70 286 2.0 4.0 0.00 0.00 0.00 56 1013.1
20260510030021 71 276 2.0 6.0 0.00 0.00 0.00 55 1013.0
20260510025521 71 252 2.0 6.0 0.00 0.00 0.00 54 1013.0
20260510025023 71 249 2.0 3.0 0.00 0.00 0.00 54 1012.9
20260510024520 71 276 1.0 4.0 0.00 0.00 0.00 54 1012.8
20260510024023 72 265 2.0 5.0 0.00 0.00 0.00 53 1012.9
20260510023519 72 251 2.0 5.0 0.00 0.00 0.00 54 1012.8
20260510023034 72 276 2.0 7.0 0.00 0.00 0.00 52 1012.8
20260510022519 72 250 2.0 7.0 0.00 0.00 0.00 52 1012.8
20260510022019 73 266 3.0 7.0 0.00 0.00 0.00 52 1012.8
20260510021519 73 237 3.0 7.0 0.00 0.00 0.00 53 1012.8
20260510021017 73 291 3.0 7.0 0.00 0.00 0.00 52 1012.7
20260510020517 73 291 2.0 7.0 0.00 0.00 0.00 53 1012.7
20260510020017 74 251 2.0 10.0 0.00 0.00 0.00 52 1012.7
20260510015517 74 302 3.0 10.0 0.00 0.00 0.00 53 1012.7
20260510015017 74 285 2.0 9.0 0.00 0.00 0.00 54 1012.6
20260510014516 74 271 4.0 9.0 0.00 0.00 0.00 53 1012.6
20260510014016 74 258 3.0 9.0 0.00 0.00 0.00 53 1012.7
20260510013516 75 255 3.0 9.0 0.00 0.00 0.00 52 1012.7
20260510013015 75 253 3.0 7.0 0.00 0.00 0.00 53 1012.5
20260510012515 75 238 3.0 12.0 0.00 0.00 0.00 52 1012.6
20260510012015 75 275 4.0 12.0 0.00 0.00 0.00 52 1012.6
20260510011521 76 279 3.0 10.0 0.00 0.00 0.00 52 1012.6
20260510011115 76 286 4.0 10.0 0.00 0.00 0.00 52 1012.6
20260510010513 76 280 4.0 10.0 0.00 0.00 0.00 52 1012.6
20260510010017 77 219 2.0 10.0 0.00 0.00 0.00 51 1012.6
20260510005513 77 281 3.0 11.0 0.00 0.00 0.00 51 1012.6
20260510005013 77 290 6.0 11.0 0.00 0.00 0.00 50 1012.6
20260510004512 78 278 3.0 8.0 0.00 0.00 0.00 51 1012.7
20260510004012 78 253 2.0 8.0 0.00 0.00 0.00 51 1012.6
20260510003511 78 285 3.0 10.0 0.00 0.00 0.00 51 1012.6
20260510003011 78 277 4.0 10.0 0.00 0.00 0.00 50 1012.7
20260510002511 78 282 3.0 11.0 0.00 0.00 0.00 52 1012.7
20260510002010 78 292 5.0 11.0 0.00 0.00 0.00 49 1012.7
20260510001510 78 272 4.0 8.0 0.00 0.00 0.00 49 1012.8
20260510001010 79 268 3.0 8.0 0.00 0.00 0.00 49 1012.8
20260510000511 79 257 2.0 8.0 0.00 0.00 0.00 50 1012.7
20260510000008 79 226 3.0 8.0 0.00 0.00 0.00 47 1012.8
20260509235507 79 260 3.0 11.0 0.00 0.00 0.00 49 1012.8
20260509235007 79 273 2.0 5.0 0.00 0.00 0.00 49 1012.8
20260509234507 79 280 2.0 7.0 0.00 0.00 0.00 49 1012.8
20260509234006 79 292 2.0 8.0 0.00 0.00 0.00 49 1012.9
20260509233506 79 296 2.0 8.0 0.00 0.00 0.00 48 1012.9
20260509233005 79 287 4.0 10.0 0.00 0.00 0.00 47 1013.0
20260509232504 79 293 2.0 11.0 0.00 0.00 0.00 49 1013.0
20260509232004 79 262 2.0 10.0 0.00 0.00 0.00 46 1013.0
20260509231503 79 255 3.0 10.0 0.00 0.00 0.00 50 1013.1
20260509231001 79 237 4.0 8.0 0.00 0.00 0.00 48 1013.1
20260509230501 79 266 2.0 9.0 0.00 0.00 0.00 49 1013.2
20260509230002 79 283 4.0 11.0 0.00 0.00 0.00 50 1013.2
20260509225600 79 294 3.0 11.0 0.00 0.00 0.00 49 1013.3
20260509225104 79 302 5.0 10.0 0.00 0.00 0.00 51 1013.3
20260509224621 79 273 3.0 10.0 0.00 0.00 0.00 49 1013.3
20260509224101 79 276 4.0 10.0 0.00 0.00 0.00 49 1013.4
20260509223559 79 261 2.0 9.0 0.00 0.00 0.00 49 1013.4
20260509223058 79 266 3.0 14.0 0.00 0.00 0.00 49 1013.4
20260509222556 80 268 4.0 11.0 0.00 0.00 0.00 48 1013.5
20260509222056 80 269 2.0 10.0 0.00 0.00 0.00 50 1013.6
20260509221556 80 283 4.0 9.0 0.00 0.00 0.00 47 1013.6
20260509221055 80 267 4.0 9.0 0.00 0.00 0.00 47 1013.6
20260509220553 79 278 2.0 10.0 0.00 0.00 0.00 49 1013.6
20260509220053 79 220 2.0 10.0 0.00 0.00 0.00 48 1013.6
20260509215553 79 298 4.0 12.0 0.00 0.00 0.00 49 1013.6
20260509215055 79 246 4.0 12.0 0.00 0.00 0.00 46 1013.6
20260509214551 79 276 3.0 8.0 0.00 0.00 0.00 48 1013.7
20260509214051 79 290 2.0 8.0 0.00 0.00 0.00 48 1013.8
20260509213551 79 281 4.0 10.0 0.00 0.00 0.00 49 1013.8
20260509213102 79 284 4.0 10.0 0.00 0.00 0.00 48 1013.9
20260509212549 79 297 2.0 8.0 0.00 0.00 0.00 50 1014.0
20260509212049 79 252 2.0 10.0 0.00 0.00 0.00 46 1014.0
20260509211611 79 289 3.0 10.0 0.00 0.00 0.00 45 1014.1
20260509211048 79 296 3.0 8.0 0.00 0.00 0.00 46 1014.1
20260509210548 79 272 3.0 11.0 0.00 0.00 0.00 46 1014.1
20260509210056 79 286 3.0 9.0 0.00 0.00 0.00 46 1014.2
20260509205547 79 229 2.0 12.0 0.00 0.00 0.00 45 1014.2
20260509205047 78 317 4.0 12.0 0.00 0.00 0.00 44 1014.2
20260509204559 79 236 3.0 9.0 0.00 0.00 0.00 46 1014.2
20260509204048 79 259 3.0 9.0 0.00 0.00 0.00 47 1014.2
20260509203547 79 250 3.0 7.0 0.00 0.00 0.00 44 1014.2
20260509203056 79 300 3.0 10.0 0.00 0.00 0.00 47 1014.3
20260509202548 79 279 3.0 9.0 0.00 0.00 0.00 42 1014.3
20260509202047 78 278 3.0 6.0 0.00 0.00 0.00 42 1014.3
20260509201546 79 221 2.0 6.0 0.00 0.00 0.00 39 1014.2
20260509201045 78 279 1.0 10.0 0.00 0.00 0.00 44 1014.4
20260509200545 78 292 4.0 10.0 0.00 0.00 0.00 41 1014.4
20260509200045 78 232 3.0 9.0 0.00 0.00 0.00 44 1014.3
20260509195544 77 272 2.0 9.0 0.00 0.00 0.00 45 1014.4
20260509195044 76 304 4.0 9.0 0.00 0.00 0.00 44 1014.4
20260509194545 76 288 3.0 9.0 0.00 0.00 0.00 45 1014.4
20260509194043 76 229 3.0 10.0 0.00 0.00 0.00 43 1014.5
20260509193543 76 277 2.0 8.0 0.00 0.00 0.00 46 1014.4
20260509193043 77 297 4.0 10.0 0.00 0.00 0.00 45 1014.4
20260509192542 77 275 5.0 10.0 0.00 0.00 0.00 46 1014.5
20260509192041 77 288 4.0 10.0 0.00 0.00 0.00 44 1014.5
20260509191540 77 320 4.0 11.0 0.00 0.00 0.00 46 1014.4
20260509191039 77 296 4.0 11.0 0.00 0.00 0.00 48 1014.5
20260509190539 77 269 2.0 9.0 0.00 0.00 0.00 48 1014.5
20260509190046 76 269 2.0 9.0 0.00 0.00 0.00 49 1014.6
20260509185538 76 292 3.0 9.0 0.00 0.00 0.00 50 1014.5
20260509185036 76 264 3.0 7.0 0.00 0.00 0.00 48 1014.5
20260509184534 77 242 3.0 8.0 0.00 0.00 0.00 50 1014.6
20260509184034 77 250 3.0 9.0 0.00 0.00 0.00 46 1014.6
20260509183533 77 278 3.0 9.0 0.00 0.00 0.00 46 1014.5
20260509183037 77 290 4.0 8.0 0.00 0.00 0.00 46 1014.5
20260509182530 77 259 2.0 9.0 0.00 0.00 0.00 47 1014.5
20260509182031 78 280 2.0 9.0 0.00 0.00 0.00 46 1014.6
20260509181528 78 289 4.0 10.0 0.00 0.00 0.00 46 1014.6
20260509181026 78 292 2.0 8.0 0.00 0.00 0.00 46 1014.6
20260509180527 78 284 2.0 8.0 0.00 0.00 0.00 46 1014.5
20260509180024 79 312 2.0 8.0 0.00 0.00 0.00 44 1014.6
20260509175524 79 288 1.0 6.0 0.00 0.00 0.00 43 1014.6
20260509175022 79 275 1.0 4.0 0.00 0.00 0.00 41 1014.6
20260509174521 79 313 2.0 5.0 0.00 0.00 0.00 45 1014.6
20260509174020 78 333 3.0 5.0 0.00 0.00 0.00 43 1014.6
20260509173518 78 355 2.0 4.0 0.00 0.00 0.00 45 1014.6
20260509173016 78 346 1.0 3.0 0.00 0.00 0.00 43 1014.6
20260509172515 78 37 1.0 3.0 0.00 0.00 0.00 46 1014.5
20260509172014 77 38 2.0 4.0 0.00 0.00 0.00 47 1014.5
20260509171513 77 43 1.0 4.0 0.00 0.00 0.00 47 1014.6
20260509171011 77 49 1.0 4.0 0.00 0.00 0.00 48 1014.6
20260509170510 77 51 2.0 4.0 0.00 0.00 0.00 50 1014.6
20260509170009 76 55 1.0 3.0 0.00 0.00 0.00 48 1014.6
20260509165511 76 55 1.0 4.0 0.00 0.00 0.00 48 1014.7
20260509165010 75 75 1.0 4.0 0.00 0.00 0.00 51 1014.7
20260509164505 75 78 0.0 3.0 0.00 0.00 0.00 53 1014.8
20260509164007 74 80 0.0 3.0 0.00 0.00 0.00 47 1014.8
20260509163503 74 82 0.0 3.0 0.00 0.00 0.00 47 1014.7
20260509163001 74 134 1.0 3.0 0.00 0.00 0.00 52 1014.7
20260509162600 73 141 0.0 2.0 0.00 0.00 0.00 55 1014.7
20260509162101 73 141 0.0 1.0 0.00 0.00 0.00 57 1014.7
20260509161557 72 142 0.0 2.0 0.00 0.00 0.00 58 1014.8
20260509161055 71 141 0.0 2.0 0.00 0.00 0.00 58 1014.9
20260509160554 70 141 0.0 1.0 0.00 0.00 0.00 58 1014.9
20260509160057 69 141 0.0 2.0 0.00 0.00 0.00 60 1014.9
20260509155550 68 144 0.0 2.0 0.00 0.00 0.00 55 1014.9
20260509155052 68 144 0.0 0.0 0.00 0.00 0.00 56 1014.9
20260509154548 68 144 0.0 0.0 0.00 0.00 0.00 57 1014.8
20260509154049 68 115 0.0 0.0 0.00 0.00 0.00 57 1014.8
20260509153545 67 109 0.0 1.0 0.00 0.00 0.00 56 1014.8
20260509153047 67 88 0.0 2.0 0.00 0.00 0.00 55 1014.8
20260509152543 68 88 0.0 2.0 0.00 0.00 0.00 58 1014.8
20260509152041 68 85 0.0 2.0 0.00 0.00 0.00 58 1014.7
20260509151541 68 85 1.0 2.0 0.00 0.00 0.00 55 1014.6
20260509151038 67 91 0.0 2.0 0.00 0.00 0.00 58 1014.6
20260509150538 67 93 0.0 2.0 0.00 0.00 0.00 57 1014.6
20260509150037 66 94 0.0 2.0 0.00 0.00 0.00 57 1014.6
20260509145534 65 123 0.0 2.0 0.00 0.00 0.00 60 1014.6
20260509145033 65 123 0.0 1.0 0.00 0.00 0.00 62 1014.6
20260509144530 64 123 0.0 1.0 0.00 0.00 0.00 60 1014.6
20260509144029 64 123 0.0 1.0 0.00 0.00 0.00 58 1014.6
20260509143528 64 123 0.0 1.0 0.00 0.00 0.00 60 1014.5
20260509143029 64 123 0.0 1.0 0.00 0.00 0.00 59 1014.5
20260509142526 63 124 0.0 2.0 0.00 0.00 0.00 59 1014.5
20260509142024 63 124 0.0 6.0 0.00 0.00 0.00 57 1014.5
20260509141529 63 114 0.0 6.0 0.00 0.00 0.00 57 1014.4
20260509141020 62 88 1.0 4.0 0.00 0.00 0.00 59 1014.3
20260509140520 62 128 1.0 5.0 0.00 0.00 0.00 59 1014.3
20260509140019 62 78 2.0 7.0 0.00 0.00 0.00 57 1014.2
20260509135516 62 38 1.0 7.0 0.00 0.00 0.00 58 1014.2
20260509135015 61 48 2.0 8.0 0.00 0.00 0.00 59 1014.2
20260509134513 61 76 2.0 8.0 0.00 0.00 0.00 60 1014.1
20260509134013 60 130 1.0 6.0 0.00 0.00 0.00 59 1014.2
20260509133510 60 86 2.0 6.0 0.00 0.00 0.00 60 1014.2
20260509133009 60 107 1.0 6.0 0.00 0.00 0.00 59 1014.2
20260509132508 60 107 2.0 6.0 0.00 0.00 0.00 60 1014.2
20260509132006 60 103 2.0 6.0 0.00 0.00 0.00 60 1014.2
20260509131505 60 100 2.0 8.0 0.00 0.00 0.00 60 1014.2